Zurück zum Katalog

BREEZE-M DEB

TANK

AktivHEO
NORAD 39524·DEBRIS·🇷🇺 Russia

Gestartet Feb 14, 2014 von Baikonur Cosmodrome

Loading…

Nächste Überflüge (nächste 24 Stunden)

TLE

AktuellSource: Space-Track

Epoche: Sep 14, 2026, 04:52 UTC

1 39524U 14007C   26257.20311219  .00011279  00000-0  67303-3 0  9998
2 39524  49.2826 254.4851 5913434 241.3866  47.5590  4.22627029176383

Verfolge BREEZE-M DEB in Echtzeit mit AllMySat

Download on the App Store